sat.trackr.live / text

‹ back to catalog

STARLINK-1319

NORAD 45379 · 2020-019V

PAYLOAD ACTIVE UNKNOWN

§ Identity

Operator
Country
US
Launch date
2020-03-18
Launch site
AFETR
Launch vehicle
Mass (kg)
RCS (m²)

Purposes: comms

External: N2YO · Heavens-Above · Gunter

§ Orbital elements

Epoch: 2026-05-25T04:27:20.418336Z

Period
91.44 min
Inclination
53.0385°
Eccentricity
0.0004899
Mean motion
15.74774506 rev/d
Perigee alt
342.0 km
Apogee alt
348.6 km
Semi-major
6,723.4 km
B*
5.0342e-4
RAAN
111.4320°
Arg perigee
47.9625°
Mean anomaly
312.1810°
Rev number
34,227

§ Raw data

STARLINK-13191 45379U 20019V   26145.18565299  .00075719  00000+0  50342-3 0  99982 45379  53.0385 111.4320 0004899  47.9625 312.1810 15.74774506342279

JSON: /api/v1/satellites/45379 · /tle

For live sub-satellite position, see the globe view (requires WebGL).

§ Visibility from observer

Set your observer location to see the next 7 days of passes ≥ 10°. The values pass through the URL so the page stays shareable.

No JS? Fill the form by hand. The geolocation button needs JavaScript.